Wind_Speed
7 6 2 1 2 1 3 2 3 4 3 5 6 2 1 3 2 2 3 9 18 20 16 15 15 13 14 12 11 11 11 10 10 9 10 8 7 7 6 6 6 5 5 5 6 5 4 3 2
6 3 1 1 0 3 3 3 6 9 6 4 8 5 2 2 3 6 14 11 21 19 16 15 15 13 13 11 11 10 10 9 9 9 8 7 7 6 6 5 5 6 7 8 7 6 5 4 3
5 2 1 2 1 2 5 7 4 3 2 2 4 5 2 3 3 15 8 20 20 19 16 16 15 13 13 11 11 9 8 9 8 8 8 7 7 7 7 6 5 6 7 8 7 6 6 4 4
2 2 2 2 2 1 4 6 2 3 7 6 6 5 4 2 12 6 17 20 19 17 15 16 15 13 11 11 10 10 7 8 8 8 6 8 7 6 7 6 7 7 8 9 7 6 5 4 4
1 1 2 3 2 0 1 2 3 1 1 4 4 4 5 4 7 15 19 20 20 17 13 13 13 11 12 10 8 8 7 8 8 6 6 7 8 7 8 7 7 8 9 9 8 6 4 3 3
1 0 3 6 1 2 2 4 2 2 3 6 5 7 5 3 12 16 17 17 16 17 14 12 13 12 12 10 9 8 9 7 8 7 8 8 8 7 8 8 6 7 7 7 7 6 4 3 2
2 2 2 3 5 2 4 3 2 2 5 3 10 6 4 8 13 15 15 15 15 15 14 13 13 13 12 10 9 9 10 9 10 11 12 7 8 7 6 7 7 6 6 6 7 6 7 5 3
2 1 1 2 2 2 1 1 4 3 4 8 4 4 5 13 16 16 15 15 14 13 13 13 12 12 9 8 9 9 10 10 10 12 10 7 7 6 6 7 6 6 6 5 5 6 5 7 7
2 0 2 2 2 1 2 2 4 5 7 3 3 4 8 21 19 17 16 15 13 12 12 13 12 11 9 8 7 11 11 12 10 10 9 9 7 7 5 6 6 4 5 5 6 6 6 9 8
2 1 1 1 2 2 4 3 3 4 8 3 3 7 18 23 21 20 18 18 15 15 14 12 12 11 10 11 11 13 12 12 12 12 10 9 8 6 5 5 5 5 5 5 6 9 9 10 10
3 2 0 2 4 4 6 4 2 7 5 3 5 13 17 21 19 18 16 17 15 14 14 13 13 11 11 10 10 12 11 11 10 10 11 8 6 4 3 5 6 7 7 7 7 10 9 12 11
2 2 2 1 1 2 5 1 3 6 3 1 10 17 19 17 18 19 16 16 15 14 13 14 14 13 11 11 10 10 11 10 8 9 9 6 4 4 3 4 5 7 7 9 7 5 7 6 10
1 1 2 1 2 1 1 2 1 6 3 9 14 16 15 14 16 15 14 12 13 16 15 14 14 13 13 12 12 12 10 10 9 7 6 5 4 4 3 4 5 6 6 7 10 5 6 9 8
2 2 1 2 4 3 4 2 2 3 10 12 14 15 13 13 15 13 15 15 16 17 16 15 14 13 13 14 14 11 11 9 9 7 5 5 5 4 3 4 5 6 7 8 8 6 5 4 4
2 1 2 4 5 3 3 3 4 2 11 14 14 13 12 13 15 16 16 19 18 17 16 15 14 13 14 14 12 11 11 7 6 5 6 6 4 3 3 3 3 4 7 4 6 5 4 4 4
1 1 2 3 5 2 4 1 2 6 10 11 11 11 12 14 16 15 15 14 15 14 16 15 14 14 14 14 12 12 10 8 7 6 6 6 5 4 4 2 2 2 4 3 3 6 6 4 3
2 3 4 2 7 3 6 2 2 7 10 11 12 12 12 12 13 16 16 16 17 17 18 17 15 14 15 14 12 12 9 8 7 7 5 5 8 6 6 3 2 3 4 3 2 3 5 3 1
5 6 4 6 7 8 8 11 5 9 12 14 13 12 12 12 14 16 16 16 16 18 18 18 16 15 15 13 14 11 8 8 9 8 6 4 5 7 6 5 5 5 5 4 3 3 2 3 3
5 5 8 4 4 8 13 12 15 13 12 12 12 13 14 15 12 14 16 16 16 17 18 19 18 15 15 12 13 9 8 9 10 7 8 7 6 9 8 5 6 6 6 6 5 4 1 1 2
7 10 7 3 1 8 4 14 16 16 17 17 17 15 14 13 10 15 17 17 19 19 20 20 20 18 18 14 11 8 9 8 8 9 8 7 8 8 7 6 5 6 6 6 5 5 3 0 3
7 8 3 1 0 3 8 9 8 11 17 15 16 15 15 15 15 15 18 19 18 19 22 22 21 19 19 17 12 10 8 7 7 8 6 4 10 8 6 5 5 4 5 6 6 6 5 3 2
11 8 6 3 1 3 3 6 5 2 7 11 15 14 15 15 13 12 16 19 20 19 18 20 21 20 19 17 14 13 11 8 6 5 4 4 8 7 6 6 6 4 5 6 6 6 7 4 2
1 1 3 2 3 4 2 4 3 3 5 7 13 16 15 15 14 15 18 20 19 18 19 19 19 20 19 19 17 15 12 8 5 4 5 6 8 9 7 8 8 8 6 5 7 5 4 5 3
10 4 5 3 2 2 2 2 5 2 3 3 1 13 15 16 15 13 16 16 17 17 17 19 19 20 21 20 19 17 14 11 9 7 7 6 6 9 11 9 8 7 6 5 5 6 6 7 4
5 5 1 1 1 2 2 4 10 6 8 10 6 11 15 15 13 13 14 18 19 20 19 19 20 21 22 22 20 20 18 15 13 10 8 7 7 7 9 13 9 7 6 5 5 6 7 7 7
9 5 3 2 4 6 3 5 1 1 6 3 2 6 13 14 13 13 14 18 20 20 20 20 20 21 21 22 23 20 20 16 15 13 10 8 8 8 9 9 10 9 7 6 6 9 7 8 7
5 6 2 2 1 4 3 5 6 3 0 2 4 9 13 14 13 14 14 17 18 20 21 22 21 21 21 23 24 24 23 22 18 19 16 12 11 9 7 8 8 9 9 10 9 7 11 9 7
6 10 3 2 3 4 1 5 4 2 5 3 4 7 9 11 12 12 13 17 18 19 18 19 20 21 21 21 21 22 25 26 24 22 21 19 15 14 11 10 11 10 10 12 13 9 10 9 8
5 5 2 2 2 3 4 4 5 6 6 8 7 7 10 12 12 12 13 17 16 16 17 18 20 20 19 21 22 23 24 24 25 22 23 23 21 17 15 13 12 13 11 13 15 15 12 12 13
3 6 10 6 4 1 3 5 2 7 5 7 9 9 8 9 11 11 12 14 15 16 17 21 20 21 22 20 20 22 21 20 20 22 23 22 22 21 20 16 15 16 16 14 15 16 15 13 14
Wind_Direction
126 138 135 180 220 95 88 59 341 23 96 357 132 114 102 31 324 30 131 155 156 152 150 154 147 136 127 134 139 119 126 131 126 130 129 142 141 135 140 142 142 139 126 131 138 138 140 134 158
142 131 108 150 120 146 107 86 80 73 92 86 97 103 80 45 57 119 140 153 151 148 147 151 150 143 140 150 144 129 128 137 137 139 142 149 141 142 137 139 141 139 130 118 114 121 117 131 158
112 159 328 67 44 149 130 134 85 44 44 70 110 68 63 34 87 147 145 151 152 148 148 147 148 154 149 156 142 130 123 125 121 139 159 145 144 141 140 137 138 126 114 112 119 131 123 126 143
161 134 93 51 360 157 127 135 47 99 93 77 103 82 91 5 146 158 147 151 149 148 149 151 151 154 150 155 147 141 143 137 133 145 133 142 145 145 139 131 127 123 122 121 136 119 121 130 147
88 130 5 62 60 88 233 276 270 45 93 47 146 113 96 36 128 145 152 155 152 152 152 157 156 156 164 165 157 148 141 133 135 136 130 147 141 144 145 135 134 140 130 139 131 124 127 137 171
66 334 11 1 55 145 250 273 255 63 49 129 116 119 121 121 138 148 152 154 154 152 153 155 154 159 167 165 161 156 142 130 135 132 132 131 142 141 142 134 149 142 139 139 135 138 137 141 182
44 24 19 307 320 161 167 204 81 144 110 137 129 127 107 153 152 150 152 153 152 151 151 153 153 155 163 162 170 160 141 136 141 147 140 140 146 135 134 148 152 151 156 156 145 163 152 133 142
99 75 296 262 298 296 121 96 123 83 112 123 125 154 158 167 155 146 152 150 152 152 152 152 149 152 159 167 178 153 134 135 139 147 136 144 143 146 146 172 167 165 164 167 165 196 184 177 174
127 229 298 314 230 276 195 116 100 68 144 110 97 143 131 149 151 143 152 153 161 162 165 162 158 164 164 155 163 148 133 142 141 149 158 147 149 147 158 181 174 193 189 204 201 224 205 218 208
208 232 271 248 229 221 178 121 144 157 157 133 121 98 140 149 157 156 170 166 172 172 175 175 170 167 156 155 156 162 159 156 160 163 168 156 157 162 166 172 182 207 199 220 212 222 217 216 222
166 269 262 221 242 166 167 149 177 158 194 210 175 153 153 157 164 171 177 175 181 177 180 181 177 173 167 159 164 172 172 167 161 159 160 160 165 173 189 200 197 208 211 205 219 225 216 225 228
225 20 4 281 202 158 171 183 111 166 95 74 146 157 159 169 173 180 183 181 176 182 186 183 180 175 172 165 169 177 174 171 161 163 161 176 175 166 151 194 196 204 219 229 204 197 213 215 219
51 44 64 214 186 225 205 153 32 215 152 122 140 159 172 179 179 185 193 193 177 185 188 187 183 179 178 172 174 179 180 176 166 168 180 192 198 191 184 187 192 205 211 224 219 239 236 221 223
79 86 116 197 193 199 224 187 295 230 166 147 159 172 177 185 184 186 189 197 193 191 190 188 191 187 180 178 179 188 188 179 177 185 206 221 220 207 216 215 214 221 240 252 231 233 226 199 182
98 290 226 231 189 178 149 261 233 140 169 167 175 180 183 192 190 198 196 197 191 192 187 189 190 185 179 181 184 189 189 193 205 221 226 216 200 198 213 212 233 240 245 248 229 221 214 204 191
62 166 253 192 194 93 182 218 217 165 167 182 188 191 199 200 205 201 200 202 196 181 189 189 189 194 190 190 192 186 192 207 232 226 202 204 204 216 225 236 286 275 255 247 236 200 201 191 214
23 305 279 213 206 155 215 228 224 185 197 201 204 205 212 216 211 204 197 194 191 190 189 193 192 197 194 191 195 197 203 219 226 213 219 218 231 226 223 245 294 273 268 267 281 234 224 261 357
298 309 295 259 201 211 216 240 208 197 213 215 215 221 226 225 220 208 199 192 193 194 194 196 195 199 201 195 195 202 213 222 216 220 228 219 226 221 228 246 251 274 267 275 285 278 300 290 291
280 286 302 265 210 208 227 245 234 212 216 226 221 217 225 233 226 202 197 188 190 194 193 194 195 199 196 194 192 205 219 225 212 236 228 237 242 222 228 249 251 266 273 289 277 292 309 37 98
268 289 299 272 181 219 272 258 247 234 222 219 218 214 218 236 197 189 187 189 190 193 197 197 200 196 196 198 198 196 207 227 217 221 235 257 223 207 222 239 259 256 270 274 271 271 273 217 173
270 275 286 348 58 227 295 273 231 238 233 223 227 225 211 214 203 194 187 191 192 196 195 197 200 203 199 201 210 218 213 219 225 220 236 240 187 196 221 259 254 273 276 269 272 263 258 260 171
293 244 266 193 314 328 340 303 272 239 244 226 225 211 202 201 207 199 189 189 193 198 197 200 200 206 211 209 208 212 213 208 213 204 205 198 205 218 231 243 251 268 277 269 282 267 258 245 208
251 51 177 230 267 292 212 259 270 314 277 233 217 208 205 198 196 199 198 195 193 191 193 198 202 204 205 211 213 210 219 223 219 208 220 223 226 234 237 239 250 263 259 266 272 243 243 224 213
161 93 78 81 323 275 35 252 274 250 262 295 209 203 198 196 196 201 205 195 189 191 191 194 199 203 206 212 214 213 220 230 234 240 251 246 253 244 244 248 250 250 263 273 252 248 239 230 220
204 180 318 264 238 319 287 224 264 288 288 289 280 204 191 192 197 193 192 195 190 191 190 195 198 205 211 213 214 219 224 231 238 237 248 262 263 258 256 254 247 258 264 270 255 242 240 245 229
188 223 232 280 305 324 182 243 272 82 318 291 244 199 186 188 188 195 197 198 196 193 193 195 199 203 207 214 218 220 224 229 236 240 246 264 267 277 275 238 240 236 244 256 253 236 243 254 251
150 203 325 169 135 262 341 277 268 89 252 46 115 157 183 192 194 197 196 203 199 196 197 199 202 206 209 212 219 225 228 229 233 243 249 254 259 265 253 248 247 250 248 240 240 244 230 250 239
208 142 179 192 232 266 230 288 296 206 186 191 170 178 183 194 194 194 198 200 203 204 203 202 208 212 210 213 220 224 228 233 238 243 247 248 253 258 254 253 258 255 251 248 241 238 231 232 239
155 195 83 129 294 275 293 315 218 255 191 197 193 197 188 197 195 197 202 205 204 198 200 206 211 213 215 216 217 222 226 230 236 239 243 245 248 250 254 257 261 264 261 264 252 248 235 239 243
236 218 194 234 202 46 309 275 233 242 228 191 203 194 196 197 202 198 198 196 200 204 203 206 214 217 220 219 220 225 229 229 230 234 239 243 244 247 251 252 253 261 268 262 251 242 242 241 248
Height
786 788 788 788 800 796 810 809 795 797 794 790 786 795 800 800 803 814 806 809 810 814 817 822 823 823 825 828 830 832 833 833 834 835 836 838 839 839 840 839 841 841 842 843 843 844 844 844 845
786 788 788 789 802 808 816 801 805 795 792 789 790 795 800 805 803 807 808 810 813 815 819 822 824 824 826 829 831 833 834 835 836 836 837 839 839 840 841 841 842 842 844 845 846 846 846 846 846
787 787 789 796 807 809 813 801 802 794 788 789 794 793 798 805 807 808 809 812 814 816 820 822 825 826 828 830 832 834 835 836 837 838 839 839 840 841 842 842 843 844 845 846 847 847 847 847 848
787 789 792 801 811 804 800 800 800 796 790 787 792 802 801 805 807 808 811 813 817 819 821 823 825 828 830 831 833 835 836 837 839 839 840 840 841 842 843 844 845 846 846 847 848 849 849 849 849
787 786 797 806 807 802 796 793 793 794 794 792 791 805 806 808 808 810 812 815 817 820 823 825 826 829 831 832 834 836 837 838 839 839 840 841 842 843 844 845 846 846 848 848 849 849 849 849 850
787 789 804 809 806 800 796 790 791 791 791 794 796 800 806 811 810 813 815 818 819 820 823 826 828 828 832 833 834 836 837 839 839 841 841 841 843 844 845 846 846 847 848 849 849 849 850 850 851
791 796 806 806 802 803 797 787 791 792 792 794 792 804 807 810 812 814 817 820 821 823 824 826 829 831 833 834 835 836 838 840 840 839 841 842 845 845 847 847 847 848 848 849 849 849 850 851 852
788 795 805 804 807 803 792 788 787 790 794 790 791 801 805 807 812 815 819 821 823 824 825 827 828 830 833 833 835 836 839 841 841 841 842 845 846 846 847 847 847 848 849 850 851 850 850 850 850
786 802 807 803 805 797 790 791 785 786 790 791 793 795 797 806 812 815 820 821 823 824 826 826 827 829 831 832 835 837 839 840 840 842 844 846 847 848 847 848 848 849 850 849 849 850 849 850 851
791 803 800 793 792 795 790 789 790 792 793 796 797 799 802 806 810 813 817 819 822 823 825 826 827 828 830 832 835 836 837 840 842 843 845 846 847 847 848 848 848 849 848 848 849 848 848 849 850
790 799 793 792 790 788 789 789 785 790 795 788 794 801 802 805 808 812 815 818 820 823 824 826 827 828 831 833 835 836 837 840 843 844 845 846 847 847 847 848 848 849 848 848 848 847 847 847 848
796 791 792 792 790 790 791 788 790 786 788 783 788 795 799 804 806 809 814 817 820 822 824 825 827 828 830 832 834 836 837 840 843 844 845 846 846 846 846 847 848 848 848 847 846 846 846 846 846
792 793 791 791 791 791 790 790 790 786 783 786 791 796 799 802 805 810 814 817 819 821 823 825 826 827 829 831 833 835 837 839 842 844 845 845 845 845 845 846 846 847 846 845 847 847 847 846 846
791 791 793 792 792 791 794 791 789 783 781 787 791 794 797 801 804 809 813 816 817 819 821 824 826 827 829 831 833 835 837 839 841 843 844 844 844 845 845 845 845 846 845 845 846 847 847 846 846
792 797 794 792 792 792 789 798 796 784 782 787 790 792 795 800 803 806 810 811 814 817 820 822 825 827 828 830 833 835 837 839 841 842 843 843 843 844 844 844 845 844 844 844 844 845 846 846 847
797 798 805 791 791 790 790 802 790 784 786 789 790 791 794 796 799 803 807 809 812 815 818 821 824 827 828 830 832 834 836 838 839 841 841 842 842 843 843 844 844 843 843 843 843 845 846 846 846
802 808 804 798 788 790 792 797 786 782 785 788 787 787 789 792 797 800 803 808 811 814 817 820 823 825 827 829 831 834 836 837 838 839 840 841 841 841 843 844 844 843 842 842 843 843 844 843 843
806 804 800 801 791 791 795 790 784 783 784 784 784 784 786 787 790 796 800 805 809 812 815 818 821 824 826 829 831 833 834 835 836 838 839 839 839 840 841 843 843 843 843 842 841 841 842 841 841
795 800 800 791 784 792 792 788 781 778 783 782 781 782 782 782 787 792 797 801 806 810 813 815 818 822 825 828 830 832 832 834 835 836 837 838 838 839 840 841 842 843 842 842 841 841 841 841 840
794 797 794 787 786 792 791 788 776 773 774 773 774 777 778 778 785 789 792 797 801 805 809 812 815 819 822 826 829 830 831 832 834 834 835 836 837 838 839 841 841 841 842 841 840 840 841 840 839
789 794 792 796 792 791 793 783 775 765 763 765 766 768 770 775 779 782 787 792 797 801 805 808 812 816 819 823 826 829 830 831 832 832 833 834 836 838 839 839 840 840 841 841 840 840 840 841 840
789 779 782 791 796 805 793 803 772 768 766 765 762 765 765 769 773 777 783 788 793 797 801 806 809 813 816 821 824 827 829 830 830 831 832 833 836 837 838 838 838 839 840 840 839 839 839 840 839
784 776 782 787 794 799 800 806 768 771 761 757 758 758 759 762 767 774 777 782 789 794 798 802 807 810 814 817 821 824 828 829 830 831 831 833 834 835 836 836 837 837 837 838 838 838 838 839 838
773 782 788 794 797 807 800 803 773 766 759 753 752 753 756 758 763 769 775 780 786 791 795 799 804 807 811 815 818 822 825 827 829 830 831 832 833 833 834 834 836 835 835 836 836 836 837 838 837
777 783 806 809 808 804 797 809 770 756 749 748 749 751 752 756 761 766 771 776 782 786 791 795 799 803 807 811 815 818 822 825 827 829 830 830 831 831 832 832 834 835 835 835 835 835 836 837 836
779 777 795 820 811 798 798 795 763 752 747 745 743 745 749 755 758 762 766 772 777 783 788 792 795 799 803 807 811 814 818 822 824 826 827 827 829 829 829 829 830 832 832 833 833 833 834 833 832
787 787 770 790 805 800 789 770 753 752 750 746 745 746 748 750 755 759 764 769 773 779 782 787 792 795 799 802 807 810 813 816 820 821 823 825 825 826 827 828 828 828 829 830 831 831 831 832 831
762 762 784 787 808 809 788 787 769 755 755 751 748 746 747 749 753 756 760 764 769 774 779 784 788 791 794 800 803 806 808 811 815 817 819 821 822 823 824 825 826 825 826 827 827 828 828 829 831
771 770 778 773 785 792 798 779 748 748 744 748 746 743 743 746 748 752 757 761 766 772 775 779 784 787 790 794 797 800 802 805 808 812 813 815 818 820 821 822 822 823 823 824 825 824 827 827 828
749 751 758 775 792 791 785 774 742 739 738 740 739 740 740 741 744 747 752 758 762 766 771 775 778 781 784 789 793 795 799 801 803 805 807 810 812 814 816 817 818 818 818 819 821 823 823 824 824